Home   Weather   Iserlohn   Past weeks

Flag for Germany Past Weather in Iserlohn, North Rhine-Westphalia, Germany — Yesterday and Last 2 Weeks

Now
48 °F

Partly sunny.


Feels Like: 41 °F
Forecast: 36 / 47 °F
Wind: 21 mph from West

Location: Dortmund / Wickede

Current Time: Feb 22, 2017 at 2:11:52 pm

Latest Report: Feb 22, 2017 at 1:20 pm


Visibility: 4 mi

Pressure: 29.68 "Hg

Humidity: 82%

Dew Point: 43 °F

Location of IserlohnLocation

Past Weather in Iserlohn — Graph

°F

Iserlohn Temperature Yesterday

Maximum temperature yesterday: 50 °F (at 1:50 pm)
Minimum temperature yesterday: 43 °F (at 6:50 pm)
Average temperature yesterday: 47 °F

High & Low Weather Summary for the Past Weeks

 TemperatureHumidityPressure
High61 °F (Feb 15, 2:50 pm)94% (Feb 20, 9:50 pm)30.51 "Hg (Feb 20, 9:50 pm)
Low27 °F (Feb 9, 7:20 am)29% (Feb 15, 2:50 pm)29.68 "Hg (Feb 22, 8:20 am)
Average39 °F75%30.21 "Hg
* Reported Feb 7 12:20 pm — Feb 22 12:50 pm, Iserlohn, Weather by CustomWeather, © 2017

Note: Actual official high and low records may vary slightly from our data, if they occured in-between our weather recording intervals... More about our weather records

Advertising

Iserlohn Weather History for the Previous 24 Hours

Scroll right to see more
 ConditionsComfort  
Time TempWeatherWind HumidityBarometerVisibility
12:50 pm
Wed, Feb 22
48 °FLight rain. Partly sunny.23 mph87%29.68 "Hg4 mi
12:20 pm48 °FPartly sunny.21 mph87%29.68 "Hg6 mi
11:50 am48 °FLight rain. Partly sunny.23 mph87%29.68 "Hg4 mi
11:20 am48 °FLight rain. Partly sunny.22 mph87%29.68 "Hg4 mi
10:50 am48 °FLight rain. Partly sunny.22 mph82%29.68 "Hg4 mi
10:20 am48 °FLight rain. Partly sunny.23 mph82%29.68 "Hg4 mi
9:50 am48 °FFog.23 mph82%29.68 "Hg2 mi
9:20 am48 °FLight rain. Partly sunny.24 mph82%29.68 "Hg4 mi
8:50 am48 °FPartly sunny.25 mph82%29.68 "Hg4 mi
8:20 am46 °FRain. Partly sunny.22 mph87%29.68 "Hg2 mi
7:50 am46 °FRain. Partly sunny.22 mph87%29.71 "Hg2 mi
7:20 am48 °FRain. Passing clouds.20 mph82%29.71 "Hg2 mi
6:50 am48 °FPassing clouds.24 mph82%29.71 "HgN/A
6:20 am48 °FPassing clouds.21 mph76%29.71 "HgN/A
5:50 am48 °FPassing clouds.22 mph82%29.71 "HgN/A
5:20 am50 °FPassing clouds.24 mph76%29.71 "HgN/A
9:50 pm
Tue, Feb 21
46 °FPassing clouds.13 mph87%29.89 "HgN/A
9:20 pm46 °FPassing clouds.12 mph82%29.89 "HgN/A
8:50 pm46 °FPassing clouds.12 mph76%29.92 "HgN/A
8:20 pm46 °FPassing clouds.13 mph71%29.92 "HgN/A
7:50 pm46 °FPassing clouds.10 mph71%29.92 "HgN/A
7:20 pm45 °FClear.9 mph71%29.92 "Hg10 mi
6:50 pm43 °FClear.8 mph71%29.95 "Hg10 mi
6:20 pm45 °FClear.8 mph71%29.95 "Hg10 mi
5:50 pm46 °FPassing clouds.7 mph62%29.95 "HgN/A
5:20 pm48 °FPassing clouds.9 mph62%29.95 "HgN/A
4:50 pm48 °FScattered clouds.8 mph62%29.95 "HgN/A
4:20 pm50 °FScattered clouds.8 mph62%29.95 "HgN/A
3:50 pm48 °FScattered clouds.10 mph66%29.95 "HgN/A
3:20 pm50 °FScattered clouds.10 mph58%29.95 "HgN/A
2:50 pm50 °FScattered clouds.9 mph58%29.95 "HgN/A
2:20 pm50 °FPassing clouds.14 mph62%29.95 "HgN/A
Weather by CustomWeather, © 2017

See weather overviewHow to use our weather pages